This is the latest recevied weather packets stored in our database for station/object KB4NWJ. If no packets are shown the sender has not sent any weather packets the latest 10 day(s).
| Time | Temp. | Humidity | Pressure | Rain* | Wind** | Luminosity | Snow |
|---|---|---|---|---|---|---|---|
| 1777901967 | 18.33° C | 63% | 1019.6 hPa | 0 mm | - | 440 W/m² | - |
| 1777901664 | 18.33° C | 62% | 1019.5 hPa | 0 mm | - | 382 W/m² | - |
| 1777901361 | 17.22° C | 66% | 1019.5 hPa | 0 mm | - | 438 W/m² | - |
| 1777901059 | 17.22° C | 64% | 1019.6 hPa | 0 mm | - | 428 W/m² | - |
| 1777900756 | 16.67° C | 69% | 1019.6 hPa | 0 mm | - | 351 W/m² | - |
| 1777900453 | 16.11° C | 69% | 1019.5 hPa | 0 mm | - | 389 W/m² | - |
| 1777900150 | 15.56° C | 79% | 1019.6 hPa | 0 mm | - | 369 W/m² | - |
| 1777899846 | 15° C | 81% | 1019.7 hPa | 0 mm | - | 354 W/m² | - |
| 1777899543 | 13.89° C | 81% | 1019.4 hPa | 0 mm | - | 574 W/m² | - |
| 1777899241 | 13.33° C | 86% | 1019.6 hPa | 0 mm | - | 305 W/m² | - |
| 1777898938 | 12.78° C | 85% | 1019.6 hPa | 0 mm | - | 180 W/m² | - |
| 1777898635 | 13.33° C | 85% | 1019.5 hPa | 0 mm | - | 144 W/m² | - |
| 1777898332 | 12.78° C | 87% | 1019.5 hPa | 0 mm | - | 132 W/m² | - |
| 1777898030 | 12.78° C | 88% | 1019.6 hPa | 0 mm | - | 124 W/m² | - |
| 1777897725 | 11.67° C | 97% | 1019.4 hPa | 0 mm | - | 110 W/m² | - |
| 1777897422 | 10° C | 99% | 1019.5 hPa | 0 mm | - | 98 W/m² | - |
| 1777897118 | 8.89° C | 99% | 1019.5 hPa | 0 mm | - | 91 W/m² | - |
| 1777896815 | 9.44° C | 99% | 1019.3 hPa | 0 mm | - | 82 W/m² | - |
| 1777896512 | 8.33° C | 99% | 1019.3 hPa | 0 mm | - | 67 W/m² | - |
| 1777896209 | 7.22° C | 99% | 1019.3 hPa | 0 mm | - | 50 W/m² | - |
| 1777895907 | 7.22° C | 99% | 1019.5 hPa | 0 mm | - | 41 W/m² | - |
| 1777895605 | 6.67° C | 99% | 1019.4 hPa | 0 mm | - | 42 W/m² | - |
| 1777895302 | 6.67° C | 99% | 1019.6 hPa | 0 mm | - | 44 W/m² | - |
| 1777895000 | 6.11° C | 99% | 1019.3 hPa | 0 mm | - | 42 W/m² | - |
| 1777894697 | 6.11° C | 99% | 1019.3 hPa | 0 mm | - | 38 W/m² | - |
* Rain latest hour (hover to see other rain measurements)
** Current wind speed in m/s (hover to see current wind gust speed)